Time,TemperatureF,DewpointF,PressureIn,WindDirection,WindDirectionDegrees,WindSpeedMPH,WindSpeedGustMPH,Humidity,HourlyPrecipIn,Conditions,Clouds,dailyrainin,SolarRadiationWatts/m^2,SoftwareType,DateUTC
2013-01-14 00:00:00,64.0,59.1,30.11,SSW,209,4.0,5.0,84,0.00,,,0.00,0,Wunderground v.1.15,2013-01-14 05:00:00,
2013-01-14 00:04:00,64.0,59.1,30.11,South,184,4.0,5.0,84,0.00,,,0.00,0,Wunderground v.1.15,2013-01-14 05:04:00,
2013-01-14 00:10:00,64.0,59.1,30.11,SW,220,3.0,6.0,84,0.00,,,0.00,0,Wunderground v.1.15,2013-01-14 05:10:00,
2013-01-14 00:14:00,64.2,59.3,30.10,SSW,206,5.0,6.0,84,0.00,,,0.00,0,Wunderground v.1.15,2013-01-14 05:14:00,
2013-01-14 00:20:00,64.3,59.4,30.10,SW,217,6.0,6.0,84,0.00,,,0.00,0,Wunderground v.1.15,2013-01-14 05:20:00,
2013-01-14 00:26:00,64.3,-99.9,30.10,SW,216,5.0,6.0,255,0.00,,,0.00,0,Wunderground v.1.15,2013-01-14 05:26:00,
2013-01-14 00:32:00,64.3,59.4,30.11,WSW,248,4.0,7.0,84,0.00,,,0.00,0,Wunderground v.1.15,2013-01-14 05:32:00,
2013-01-14 00:38:00,64.3,59.4,30.11,WSW,246,5.0,7.0,84,0.00,,,0.00,0,Wunderground v.1.15,2013-01-14 05:38:00,
2013-01-14 00:44:00,64.3,59.4,30.11,WSW,240,5.0,6.0,84,0.00,,,0.00,0,Wunderground v.1.15,2013-01-14 05:44:00,
2013-01-14 00:50:00,64.0,59.1,30.11,WSW,253,5.0,5.0,84,0.00,,,0.00,0,Wunderground v.1.15,2013-01-14 05:50:00,
2013-01-14 00:56:00,63.9,59.0,30.11,WSW,248,4.0,5.0,84,0.00,,,0.00,0,Wunderground v.1.15,2013-01-14 05:56:00,
2013-01-14 01:02:00,63.7,59.1,30.11,WSW,258,3.0,3.0,85,0.00,,,0.00,0,Wunderground v.1.15,2013-01-14 06:02:00,
2013-01-14 01:08:00,63.7,59.1,30.11,SSW,213,4.0,7.0,85,0.00,,,0.00,0,Wunderground v.1.15,2013-01-14 06:08:00,
2013-01-14 01:14:00,63.5,-99.9,30.11,SW,217,5.0,6.0,255,0.00,,,0.00,0,Wunderground v.1.15,2013-01-14 06:14:00,
2013-01-14 01:20:00,63.4,-99.9,30.11,SW,226,3.0,3.0,255,0.00,,,0.00,0,Wunderground v.1.15,2013-01-14 06:20:00,
2013-01-14 01:26:00,63.4,-99.9,30.11,WSW,241,3.0,3.0,255,0.00,,,0.00,0,Wunderground v.1.15,2013-01-14 06:26:00,
2013-01-14 01:32:00,63.1,-99.9,30.12,SSW,208,4.0,4.0,255,0.00,,,0.00,0,Wunderground v.1.15,2013-01-14 06:32:00,
2013-01-14 01:38:00,63.1,58.8,30.12,SW,215,3.0,5.0,86,0.00,,,0.00,0,Wunderground v.1.15,2013-01-14 06:38:00,
2013-01-14 01:44:00,62.9,59.0,30.12,WSW,244,3.0,5.0,87,0.00,,,0.00,0,Wunderground v.1.15,2013-01-14 06:44:00,
2013-01-14 01:50:00,62.6,58.7,30.12,SW,223,3.0,3.0,87,0.00,,,0.00,0,Wunderground v.1.15,2013-01-14 06:50:00,
2013-01-14 01:56:00,62.4,58.5,30.12,SW,224,3.0,4.0,87,0.00,,,0.00,0,Wunderground v.1.15,2013-01-14 06:56:00,
2013-01-14 02:02:00,62.3,58.7,30.13,SSW,209,3.0,3.0,88,0.00,,,0.00,0,Wunderground v.1.15,2013-01-14 07:02:00,
2013-01-14 02:08:00,62.1,58.5,30.13,SW,233,3.0,5.0,88,0.00,,,0.00,0,Wunderground v.1.15,2013-01-14 07:08:00,
2013-01-14 02:14:00,62.1,58.5,30.13,SW,222,2.0,5.0,88,0.00,,,0.00,0,Wunderground v.1.15,2013-01-14 07:14:00,
2013-01-14 02:20:00,62.0,58.7,30.13,SSW,213,3.0,3.0,89,0.00,,,0.00,0,Wunderground v.1.15,2013-01-14 07:20:00,
2013-01-14 02:26:00,62.0,58.7,30.13,SW,217,4.0,4.0,89,0.00,,,0.00,0,Wunderground v.1.15,2013-01-14 07:26:00,
2013-01-14 02:32:00,62.0,58.7,30.13,SW,220,4.0,5.0,89,0.00,,,0.00,0,Wunderground v.1.15,2013-01-14 07:32:00,
2013-01-14 02:38:00,61.8,58.5,30.13,SW,226,3.0,5.0,89,0.00,,,0.00,0,Wunderground v.1.15,2013-01-14 07:38:00,
2013-01-14 02:44:00,61.8,58.5,30.13,SW,217,3.0,6.0,89,0.00,,,0.00,0,Wunderground v.1.15,2013-01-14 07:44:00,
2013-01-14 02:50:00,61.6,58.3,30.13,SW,217,3.0,3.0,89,0.00,,,0.00,0,Wunderground v.1.15,2013-01-14 07:50:00,
2013-01-14 02:56:00,61.5,58.2,30.13,SW,217,2.0,3.0,89,0.00,,,0.00,0,Wunderground v.1.15,2013-01-14 07:56:00,
2013-01-14 03:02:00,61.3,58.3,30.13,SW,217,2.0,2.0,90,0.00,,,0.00,0,Wunderground v.1.15,2013-01-14 08:02:00,
2013-01-14 03:08:00,61.2,58.2,30.13,SW,217,2.0,2.0,90,0.00,,,0.00,0,Wunderground v.1.15,2013-01-14 08:08:00,
2013-01-14 03:14:00,61.0,58.0,30.13,SW,220,3.0,3.0,90,0.00,,,0.00,0,Wunderground v.1.15,2013-01-14 08:14:00,
2013-01-14 03:20:00,60.9,58.3,30.13,SW,220,3.0,3.0,91,0.00,,,0.00,0,Wunderground v.1.15,2013-01-14 08:20:00,
2013-01-14 03:26:00,60.7,58.1,30.13,SW,220,3.0,4.0,91,0.00,,,0.00,0,Wunderground v.1.15,2013-01-14 08:26:00,
2013-01-14 03:32:00,60.5,57.9,30.13,SW,220,3.0,3.0,91,0.00,,,0.00,0,Wunderground v.1.15,2013-01-14 08:32:00,
2013-01-14 03:38:00,60.4,57.8,30.13,SW,217,3.0,3.0,91,0.00,,,0.00,0,Wunderground v.1.15,2013-01-14 08:38:00,
2013-01-14 03:44:00,60.1,57.5,30.13,SW,224,2.0,3.0,91,0.00,,,0.00,0,Wunderground v.1.15,2013-01-14 08:44:00,
2013-01-14 03:50:00,59.9,57.3,30.13,SW,224,1.0,1.0,91,0.00,,,0.00,0,Wunderground v.1.15,2013-01-14 08:50:00,
2013-01-14 03:56:00,59.8,57.2,30.13,SW,224,1.0,1.0,91,0.00,,,0.00,0,Wunderground v.1.15,2013-01-14 08:56:00,
2013-01-14 04:02:00,59.5,57.2,30.13,SW,224,1.0,2.0,92,0.00,,,0.00,0,Wunderground v.1.15,2013-01-14 09:02:00,
2013-01-14 04:08:00,59.2,56.9,30.13,SW,224,1.0,2.0,92,0.00,,,0.00,0,Wunderground v.1.15,2013-01-14 09:08:00,
2013-01-14 04:14:00,59.2,57.2,30.13,SW,224,2.0,3.0,93,0.00,,,0.00,0,Wunderground v.1.15,2013-01-14 09:14:00,
2013-01-14 04:20:00,59.0,57.0,30.13,SW,224,2.0,2.0,93,0.00,,,0.00,0,Wunderground v.1.15,2013-01-14 09:20:00,
2013-01-14 04:26:00,59.0,57.0,30.13,SW,224,2.0,2.0,93,0.00,,,0.00,0,Wunderground v.1.15,2013-01-14 09:26:00,
2013-01-14 04:32:00,58.9,56.9,30.13,SW,224,2.0,2.0,93,0.00,,,0.00,0,Wunderground v.1.15,2013-01-14 09:32:00,
2013-01-14 04:38:00,58.9,56.9,30.13,SW,224,1.0,2.0,93,0.00,,,0.00,0,Wunderground v.1.15,2013-01-14 09:38:00,
2013-01-14 04:44:00,58.9,56.9,30.13,SW,224,1.0,2.0,93,0.00,,,0.00,0,Wunderground v.1.15,2013-01-14 09:44:00,
2013-01-14 04:50:00,58.9,56.9,30.12,SW,232,2.0,3.0,93,0.00,,,0.00,0,Wunderground v.1.15,2013-01-14 09:50:00,
2013-01-14 04:56:00,58.6,56.6,30.12,South,191,2.0,3.0,93,0.00,,,0.00,0,Wunderground v.1.15,2013-01-14 09:56:00,
2013-01-14 05:02:00,58.6,56.6,30.12,SW,217,3.0,3.0,93,0.00,,,0.00,0,Wunderground v.1.15,2013-01-14 10:02:00,
2013-01-14 05:08:00,58.6,-99.9,30.12,SW,217,3.0,3.0,255,0.00,,,0.00,0,Wunderground v.1.15,2013-01-14 10:08:00,
2013-01-14 05:14:00,58.6,-99.9,30.12,SW,219,2.0,3.0,255,0.00,,,0.00,0,Wunderground v.1.15,2013-01-14 10:14:00,
2013-01-14 05:20:00,58.6,-99.9,30.12,SW,219,2.0,2.0,255,0.00,,,0.00,0,Wunderground v.1.15,2013-01-14 10:20:00,
2013-01-14 05:26:00,58.6,-99.9,30.12,SW,219,2.0,2.0,255,0.00,,,0.00,0,Wunderground v.1.15,2013-01-14 10:26:00,
2013-01-14 05:32:00,58.6,-99.9,30.12,SW,219,1.0,2.0,255,0.00,,,0.00,0,Wunderground v.1.15,2013-01-14 10:32:00,
2013-01-14 05:38:00,58.6,-99.9,30.12,SW,216,1.0,2.0,255,0.00,,,0.00,0,Wunderground v.1.15,2013-01-14 10:38:00,
2013-01-14 05:44:00,58.6,-99.9,30.12,SW,216,1.0,2.0,255,0.00,,,0.00,0,Wunderground v.1.15,2013-01-14 10:44:00,
2013-01-14 05:50:00,58.6,-99.9,30.12,SW,216,1.0,1.0,255,0.00,,,0.00,0,Wunderground v.1.15,2013-01-14 10:50:00,
2013-01-14 05:56:00,58.9,-99.9,30.12,SW,216,2.0,2.0,255,0.00,,,0.00,0,Wunderground v.1.15,2013-01-14 10:56:00,
2013-01-14 06:02:00,59.0,-99.9,30.13,SW,224,2.0,2.0,255,0.00,,,0.00,0,Wunderground v.1.15,2013-01-14 11:02:00,
2013-01-14 06:08:00,59.0,-99.9,30.13,SW,224,2.0,5.0,255,0.00,,,0.00,0,Wunderground v.1.15,2013-01-14 11:08:00,
2013-01-14 06:14:00,59.0,-99.9,30.13,SW,224,1.0,3.0,255,0.00,,,0.00,0,Wunderground v.1.15,2013-01-14 11:14:00,
2013-01-14 06:20:00,58.9,-99.9,30.13,SSW,195,1.0,1.0,255,0.00,,,0.00,0,Wunderground v.1.15,2013-01-14 11:20:00,
2013-01-14 06:26:00,58.9,-99.9,30.13,SW,226,1.0,2.0,255,0.00,,,0.00,0,Wunderground v.1.15,2013-01-14 11:26:00,
2013-01-14 06:32:00,58.9,-99.9,30.13,SW,226,1.0,2.0,255,0.00,,,0.00,0,Wunderground v.1.15,2013-01-14 11:32:00,
2013-01-14 06:38:00,58.9,-99.9,30.13,SW,226,2.0,2.0,255,0.00,,,0.00,0,Wunderground v.1.15,2013-01-14 11:38:00,
2013-01-14 06:44:00,58.9,-99.9,30.13,SW,226,1.0,2.0,255,0.00,,,0.00,0,Wunderground v.1.15,2013-01-14 11:44:00,
2013-01-14 06:50:00,58.7,-99.9,30.13,SW,226,1.0,2.0,255,0.00,,,0.00,0,Wunderground v.1.15,2013-01-14 11:50:00,
2013-01-14 06:56:00,58.9,-99.9,30.13,SW,226,1.0,2.0,255,0.00,,,0.00,0,Wunderground v.1.15,2013-01-14 11:56:00,
2013-01-14 07:02:00,58.7,-99.9,30.14,SW,226,2.0,5.0,255,0.00,,,0.00,0,Wunderground v.1.15,2013-01-14 12:02:00,
2013-01-14 07:08:00,58.7,-99.9,30.14,SSW,205,3.0,5.0,255,0.00,,,0.00,0,Wunderground v.1.15,2013-01-14 12:08:00,
2013-01-14 07:14:00,58.7,57.3,30.14,SW,217,3.0,3.0,95,0.00,,,0.00,0,Wunderground v.1.15,2013-01-14 12:14:00,
2013-01-14 07:20:00,58.7,57.3,30.14,SW,234,2.0,3.0,95,0.00,,,0.00,7,Wunderground v.1.15,2013-01-14 12:20:00,
2013-01-14 07:26:00,58.7,57.3,30.14,SW,229,2.0,3.0,95,0.00,,,0.00,7,Wunderground v.1.15,2013-01-14 12:26:00,
2013-01-14 07:32:00,58.7,57.3,30.15,South,169,2.0,4.0,95,0.00,,,0.00,7,Wunderground v.1.15,2013-01-14 12:32:00,
2013-01-14 07:38:00,-999.9,-99.9,30.15,SW,219,3.0,4.0,255,-99.99,,,0.00,,Wunderground v.1.15,2013-01-14 12:38:00,
2013-01-14 07:44:00,-999.9,-99.9,30.15,SW,219,3.0,5.0,255,-99.99,,,0.00,,Wunderground v.1.15,2013-01-14 12:44:00,
2013-01-14 07:50:00,-999.9,-99.9,30.15,SW,217,2.0,2.0,255,-99.99,,,0.00,,Wunderground v.1.15,2013-01-14 12:50:00,
2013-01-14 07:56:00,59.0,-99.9,30.15,SW,223,1.0,3.0,255,0.00,,,0.00,,Wunderground v.1.15,2013-01-14 12:56:00,
2013-01-14 08:02:00,59.0,-99.9,30.16,SW,223,1.0,1.0,255,0.00,,,0.00,,Wunderground v.1.15,2013-01-14 13:02:00,
2013-01-14 08:08:00,-999.9,-99.9,30.16,SSW,202,1.0,2.0,255,-99.99,,,0.00,,Wunderground v.1.15,2013-01-14 13:08:00,
2013-01-14 08:14:00,-999.9,-99.9,30.16,SSW,202,2.0,3.0,255,-99.99,,,0.00,,Wunderground v.1.15,2013-01-14 13:14:00,
2013-01-14 08:20:00,-999.9,-99.9,30.16,SSW,202,2.0,3.0,255,-99.99,,,0.00,,Wunderground v.1.15,2013-01-14 13:20:00,
2013-01-14 08:26:00,59.5,57.5,30.16,SSW,202,2.0,3.0,93,0.00,,,0.00,48,Wunderground v.1.15,2013-01-14 13:26:00,
2013-01-14 08:32:00,59.5,57.5,30.16,SSW,202,1.0,1.0,93,0.00,,,0.00,42,Wunderground v.1.15,2013-01-14 13:32:00,
2013-01-14 08:38:00,59.6,57.6,30.16,SW,222,1.0,3.0,93,0.00,,,0.00,42,Wunderground v.1.15,2013-01-14 13:38:00,
2013-01-14 08:44:00,59.8,57.8,30.16,SSW,206,2.0,2.0,93,0.00,,,0.00,55,Wunderground v.1.15,2013-01-14 13:44:00,
2013-01-14 08:50:00,59.8,57.5,30.16,SSW,206,2.0,2.0,92,0.00,,,0.00,44,Wunderground v.1.15,2013-01-14 13:50:00,
2013-01-14 08:56:00,59.9,57.6,30.16,SSW,208,2.0,3.0,92,0.00,,,0.00,55,Wunderground v.1.15,2013-01-14 13:56:00,
2013-01-14 09:02:00,60.1,57.8,30.17,SW,227,2.0,2.0,92,0.00,,,0.00,55,Wunderground v.1.15,2013-01-14 14:02:00,
2013-01-14 09:08:00,60.4,58.1,30.17,SSW,209,2.0,4.0,92,0.00,,,0.00,84,Wunderground v.1.15,2013-01-14 14:08:00,
2013-01-14 09:14:00,60.5,57.9,30.17,SSW,209,2.0,2.0,91,0.00,,,0.00,86,Wunderground v.1.15,2013-01-14 14:14:00,
2013-01-14 09:20:00,60.7,58.1,30.17,WSW,247,2.0,3.0,91,0.00,,,0.00,79,Wunderground v.1.15,2013-01-14 14:20:00,
2013-01-14 09:26:00,60.9,58.3,30.17,WSW,258,2.0,3.0,91,0.00,,,0.00,69,Wunderground v.1.15,2013-01-14 14:26:00,
2013-01-14 09:32:00,61.0,58.4,30.18,SW,234,1.0,2.0,91,0.00,,,0.00,76,Wunderground v.1.15,2013-01-14 14:32:00,
2013-01-14 09:38:00,61.2,58.6,30.18,SW,233,1.0,3.0,91,0.00,,,0.00,81,Wunderground v.1.15,2013-01-14 14:38:00,
2013-01-14 09:44:00,61.3,58.0,30.18,SW,233,1.0,1.0,89,0.00,,,0.00,100,Wunderground v.1.15,2013-01-14 14:44:00,
2013-01-14 09:50:00,61.5,58.2,30.18,SW,219,1.0,1.0,89,0.00,,,0.00,125,Wunderground v.1.15,2013-01-14 14:50:00,
2013-01-14 09:56:00,62.1,58.8,30.18,SSW,203,1.0,2.0,89,0.00,,,0.00,123,Wunderground v.1.15,2013-01-14 14:56:00,
2013-01-14 10:02:00,62.3,59.0,30.19,SW,236,1.0,3.0,89,0.00,,,0.00,123,Wunderground v.1.15,2013-01-14 15:02:00,
2013-01-14 10:08:00,62.6,58.7,30.19,WSW,253,2.0,6.0,87,0.00,,,0.00,123,Wunderground v.1.15,2013-01-14 15:08:00,
2013-01-14 10:14:00,62.7,58.8,30.19,SSW,206,3.0,5.0,87,0.00,,,0.00,143,Wunderground v.1.15,2013-01-14 15:14:00,
2013-01-14 10:20:00,63.1,59.2,30.19,SW,227,3.0,3.0,87,0.00,,,0.00,137,Wunderground v.1.15,2013-01-14 15:20:00,
2013-01-14 10:26:00,63.5,59.6,30.19,SW,230,2.0,5.0,87,0.00,,,0.00,137,Wunderground v.1.15,2013-01-14 15:26:00,
2013-01-14 10:32:00,63.7,58.8,30.17,SW,219,3.0,3.0,84,0.00,,,0.00,99,Wunderground v.1.15,2013-01-14 15:32:00,
2013-01-14 10:38:00,64.0,59.1,30.17,South,189,2.0,3.0,84,0.00,,,0.00,127,Wunderground v.1.15,2013-01-14 15:38:00,
2013-01-14 10:44:00,64.3,59.4,30.17,SSW,208,1.0,3.0,84,0.00,,,0.00,127,Wunderground v.1.15,2013-01-14 15:44:00,
2013-01-14 10:50:00,64.7,59.4,30.17,SW,227,2.0,2.0,83,0.00,,,0.00,150,Wunderground v.1.15,2013-01-14 15:50:00,
2013-01-14 10:56:00,65.0,59.7,30.17,SW,227,3.0,5.0,83,0.00,,,0.00,150,Wunderground v.1.15,2013-01-14 15:56:00,
2013-01-14 11:02:00,65.5,60.2,30.16,SW,219,3.0,5.0,83,0.00,,,0.00,252,Wunderground v.1.15,2013-01-14 16:02:00,
2013-01-14 11:08:00,65.8,60.2,30.16,SSW,209,4.0,5.0,82,0.00,,,0.00,241,Wunderground v.1.15,2013-01-14 16:08:00,
2013-01-14 11:14:00,66.3,60.3,30.16,WSW,251,4.0,5.0,81,0.00,,,0.00,227,Wunderground v.1.15,2013-01-14 16:14:00,
2013-01-14 11:20:00,66.4,60.0,30.16,SW,224,4.0,4.0,80,0.00,,,0.00,236,Wunderground v.1.15,2013-01-14 16:20:00,
2013-01-14 11:26:00,66.8,60.4,30.16,WSW,258,5.0,7.0,80,0.00,,,0.00,236,Wunderground v.1.15,2013-01-14 16:26:00,
2013-01-14 11:32:00,67.1,60.7,30.15,WSW,247,4.0,5.0,80,0.00,,,0.00,234,Wunderground v.1.15,2013-01-14 16:32:00,
2013-01-14 11:38:00,67.3,60.2,30.15,SW,236,4.0,5.0,78,0.00,,,0.00,209,Wunderground v.1.15,2013-01-14 16:38:00,
2013-01-14 11:44:00,67.6,60.9,30.15,SW,234,2.0,5.0,79,0.00,,,0.00,157,Wunderground v.1.15,2013-01-14 16:44:00,
2013-01-14 11:50:00,67.8,61.0,30.15,WSW,241,2.0,2.0,79,0.00,,,0.00,121,Wunderground v.1.15,2013-01-14 16:50:00,
2013-01-14 11:56:00,67.6,60.5,30.15,WSW,237,3.0,5.0,78,0.00,,,0.00,118,Wunderground v.1.15,2013-01-14 16:56:00,
2013-01-14 12:02:00,67.6,60.5,30.14,SSW,206,3.0,7.0,78,0.00,,,0.00,106,Wunderground v.1.15,2013-01-14 17:02:00,
2013-01-14 12:08:00,67.6,60.9,30.14,WSW,253,4.0,7.0,79,0.00,,,0.00,72,Wunderground v.1.15,2013-01-14 17:08:00,
2013-01-14 12:14:00,67.4,60.7,30.14,SW,217,3.0,5.0,79,0.00,,,0.00,79,Wunderground v.1.15,2013-01-14 17:14:00,
2013-01-14 12:20:00,67.6,60.9,30.13,SSW,209,3.0,6.0,79,0.00,,,0.00,79,Wunderground v.1.15,2013-01-14 17:20:00,
2013-01-14 12:26:00,67.8,61.4,30.13,WSW,246,3.0,6.0,80,0.00,,,0.00,79,Wunderground v.1.15,2013-01-14 17:26:00,
2013-01-14 12:32:00,67.9,61.1,30.12,SW,224,2.0,3.0,79,0.00,,,0.00,79,Wunderground v.1.15,2013-01-14 17:32:00,
2013-01-14 12:38:00,68.3,61.5,30.12,SW,219,3.0,3.0,79,0.00,,,0.00,171,Wunderground v.1.15,2013-01-14 17:38:00,
2013-01-14 12:44:00,68.6,61.5,30.12,SW,220,2.0,3.0,78,0.00,,,0.00,148,Wunderground v.1.15,2013-01-14 17:44:00,
2013-01-14 12:50:00,68.8,61.7,30.12,West,263,3.0,3.0,78,0.00,,,0.00,144,Wunderground v.1.15,2013-01-14 17:50:00,
2013-01-14 12:56:00,68.9,61.8,30.12,SSW,209,3.0,3.0,78,0.00,,,0.00,144,Wunderground v.1.15,2013-01-14 17:56:00,
2013-01-14 13:02:00,68.9,61.4,30.11,SW,215,2.0,5.0,77,0.00,,,0.00,144,Wunderground v.1.15,2013-01-14 18:02:00,
2013-01-14 13:08:00,68.9,61.8,30.11,SW,229,2.0,5.0,78,0.00,,,0.00,90,Wunderground v.1.15,2013-01-14 18:08:00,
2013-01-14 13:14:00,68.9,61.8,30.11,SW,229,1.0,2.0,78,0.00,,,0.00,91,Wunderground v.1.15,2013-01-14 18:14:00,
2013-01-14 13:20:00,68.9,61.8,30.11,SW,227,1.0,2.0,78,0.00,,,0.00,120,Wunderground v.1.15,2013-01-14 18:20:00,
2013-01-14 13:26:00,68.9,61.8,30.11,WSW,251,3.0,4.0,78,0.00,,,0.00,132,Wunderground v.1.15,2013-01-14 18:26:00,
2013-01-14 13:32:00,69.1,61.9,30.11,WSW,250,2.0,2.0,78,0.00,,,0.00,123,Wunderground v.1.15,2013-01-14 18:32:00,
2013-01-14 13:38:00,69.3,61.8,30.11,WSW,250,1.0,2.0,77,0.00,,,0.00,121,Wunderground v.1.15,2013-01-14 18:38:00,
2013-01-14 13:44:00,69.4,61.9,30.11,WSW,257,1.0,2.0,77,0.00,,,0.00,109,Wunderground v.1.15,2013-01-14 18:44:00,
2013-01-14 13:50:00,69.6,62.1,30.11,WSW,257,1.0,2.0,77,0.00,,,0.00,113,Wunderground v.1.15,2013-01-14 18:50:00,
2013-01-14 13:56:00,69.6,62.1,30.11,WSW,257,0.0,2.0,77,0.00,,,0.00,76,Wunderground v.1.15,2013-01-14 18:56:00,
2013-01-14 14:02:00,69.8,62.3,30.11,WSW,257,0.0,2.0,77,0.00,,,0.00,111,Wunderground v.1.15,2013-01-14 19:02:00,
2013-01-14 14:08:00,69.8,62.3,30.11,WSW,257,0.0,2.0,77,0.00,,,0.00,88,Wunderground v.1.15,2013-01-14 19:08:00,
2013-01-14 14:14:00,69.8,62.3,30.11,WSW,257,0.0,0.0,77,0.00,,,0.00,70,Wunderground v.1.15,2013-01-14 19:14:00,
2013-01-14 14:20:00,69.8,62.3,30.11,WSW,257,0.0,0.0,77,0.00,,,0.00,81,Wunderground v.1.15,2013-01-14 19:20:00,
2013-01-14 14:26:00,69.9,62.4,30.11,WSW,257,0.0,0.0,77,0.00,,,0.00,56,Wunderground v.1.15,2013-01-14 19:26:00,
2013-01-14 14:32:00,69.9,62.4,30.11,WSW,257,0.0,0.0,77,0.00,,,0.00,65,Wunderground v.1.15,2013-01-14 19:32:00,
2013-01-14 14:38:00,70.1,62.9,30.11,WSW,257,0.0,0.0,78,0.00,,,0.00,106,Wunderground v.1.15,2013-01-14 19:38:00,
2013-01-14 14:44:00,70.1,62.6,30.12,WSW,257,0.0,0.0,77,0.00,,,0.00,79,Wunderground v.1.15,2013-01-14 19:44:00,
2013-01-14 14:50:00,70.1,62.6,30.12,WSW,257,0.0,0.0,77,0.00,,,0.00,48,Wunderground v.1.15,2013-01-14 19:50:00,
2013-01-14 14:56:00,70.1,62.6,30.12,WSW,257,0.0,0.0,77,0.00,,,0.00,39,Wunderground v.1.15,2013-01-14 19:56:00,
2013-01-14 15:02:00,70.1,62.6,30.12,WSW,257,0.0,0.0,77,0.00,,,0.00,51,Wunderground v.1.15,2013-01-14 20:02:00,
2013-01-14 15:08:00,70.1,62.9,30.12,WSW,257,0.0,0.0,78,0.00,,,0.00,70,Wunderground v.1.15,2013-01-14 20:08:00,
2013-01-14 15:14:00,70.1,62.9,30.12,WSW,257,0.0,0.0,78,0.00,,,0.00,79,Wunderground v.1.15,2013-01-14 20:14:00,
2013-01-14 15:20:00,70.1,62.9,30.12,WSW,257,0.0,0.0,78,0.00,,,0.00,79,Wunderground v.1.15,2013-01-14 20:20:00,
2013-01-14 15:26:00,70.1,62.9,30.12,WSW,257,0.0,0.0,78,0.00,,,0.00,63,Wunderground v.1.15,2013-01-14 20:26:00,
2013-01-14 15:32:00,70.1,62.9,30.12,WSW,257,0.0,0.0,78,0.00,,,0.00,44,Wunderground v.1.15,2013-01-14 20:32:00,
2013-01-14 15:38:00,70.1,62.9,30.12,WSW,257,0.0,0.0,78,0.00,,,0.00,60,Wunderground v.1.15,2013-01-14 20:38:00,
2013-01-14 15:44:00,69.9,62.7,30.12,WSW,257,0.0,0.0,78,0.00,,,0.00,65,Wunderground v.1.15,2013-01-14 20:44:00,
2013-01-14 15:50:00,69.9,62.7,30.12,WSW,257,0.0,0.0,78,0.00,,,0.00,42,Wunderground v.1.15,2013-01-14 20:50:00,
2013-01-14 15:56:00,69.9,63.1,30.12,WSW,257,0.0,0.0,79,0.00,,,0.00,42,Wunderground v.1.15,2013-01-14 20:56:00,
2013-01-14 16:02:00,69.8,63.0,30.13,WSW,257,0.0,0.0,79,0.00,,,0.00,23,Wunderground v.1.15,2013-01-14 21:02:00,
2013-01-14 16:08:00,69.8,63.0,30.13,WSW,257,0.0,0.0,79,0.00,,,0.00,19,Wunderground v.1.15,2013-01-14 21:08:00,
2013-01-14 16:14:00,69.6,62.8,30.13,WSW,257,0.0,0.0,79,0.00,,,0.00,19,Wunderground v.1.15,2013-01-14 21:14:00,
2013-01-14 16:20:00,69.4,63.0,30.13,WSW,257,0.0,0.0,80,0.00,,,0.00,18,Wunderground v.1.15,2013-01-14 21:20:00,
2013-01-14 16:26:00,69.3,62.9,30.13,WSW,257,0.0,0.0,80,0.00,,,0.00,12,Wunderground v.1.15,2013-01-14 21:26:00,
2013-01-14 16:32:00,68.9,62.8,30.13,WSW,257,0.0,0.0,81,0.00,,,0.00,12,Wunderground v.1.15,2013-01-14 21:32:00,
2013-01-14 16:38:00,68.8,63.1,30.13,WSW,257,0.0,0.0,82,0.00,,,0.00,5,Wunderground v.1.15,2013-01-14 21:38:00,
2013-01-14 16:44:00,68.4,63.0,30.14,WSW,257,0.0,0.0,83,0.00,,,0.00,5,Wunderground v.1.15,2013-01-14 21:44:00,
2013-01-14 16:50:00,68.3,62.9,30.14,WSW,257,0.0,0.0,83,0.00,,,0.00,5,Wunderground v.1.15,2013-01-14 21:50:00,
2013-01-14 16:56:00,68.1,63.1,30.14,WSW,257,0.0,0.0,84,0.00,,,0.00,5,Wunderground v.1.15,2013-01-14 21:56:00,
2013-01-14 17:02:00,67.9,62.9,30.14,WSW,257,0.0,0.0,84,0.00,,,0.00,5,Wunderground v.1.15,2013-01-14 22:02:00,
2013-01-14 17:08:00,67.8,-99.9,30.14,WSW,257,0.0,0.0,255,0.00,,,0.00,0,Wunderground v.1.15,2013-01-14 22:08:00,
2013-01-14 17:14:00,67.6,62.9,30.14,WSW,257,0.0,0.0,85,0.00,,,0.00,0,Wunderground v.1.15,2013-01-14 22:14:00,
2013-01-14 17:20:00,67.3,62.6,30.14,WSW,257,0.0,0.0,85,0.00,,,0.00,0,Wunderground v.1.15,2013-01-14 22:20:00,
2013-01-14 17:26:00,67.1,62.4,30.14,WSW,257,0.0,0.0,85,0.00,,,0.00,0,Wunderground v.1.15,2013-01-14 22:26:00,
2013-01-14 17:32:00,66.9,62.6,30.14,WSW,257,0.0,0.0,86,0.00,,,0.00,0,Wunderground v.1.15,2013-01-14 22:32:00,
2013-01-14 17:38:00,66.8,62.8,30.14,WSW,257,0.0,0.0,87,0.00,,,0.00,0,Wunderground v.1.15,2013-01-14 22:38:00,
2013-01-14 17:44:00,66.8,62.8,30.14,WSW,257,0.0,0.0,87,0.00,,,0.00,0,Wunderground v.1.15,2013-01-14 22:44:00,
2013-01-14 17:50:00,66.6,62.9,30.15,WSW,257,0.0,0.0,88,0.00,,,0.00,0,Wunderground v.1.15,2013-01-14 22:50:00,
2013-01-14 17:56:00,66.4,63.1,30.15,WSW,257,0.0,0.0,89,0.00,,,0.00,0,Wunderground v.1.15,2013-01-14 22:56:00,
2013-01-14 18:02:00,66.3,63.0,30.15,WSW,257,0.0,0.0,89,0.00,,,0.00,0,Wunderground v.1.15,2013-01-14 23:02:00,
2013-01-14 18:08:00,66.3,63.0,30.15,WSW,257,0.0,0.0,89,0.00,,,0.00,0,Wunderground v.1.15,2013-01-14 23:08:00,
2013-01-14 18:14:00,66.1,63.1,30.15,WSW,257,0.0,0.0,90,0.00,,,0.00,0,Wunderground v.1.15,2013-01-14 23:14:00,
2013-01-14 18:20:00,66.0,63.3,30.15,WSW,257,0.0,0.0,91,0.00,,,0.00,0,Wunderground v.1.15,2013-01-14 23:20:00,
2013-01-14 18:26:00,65.8,63.1,30.15,WSW,257,0.0,0.0,91,0.00,,,0.00,0,Wunderground v.1.15,2013-01-14 23:26:00,
2013-01-14 18:32:00,65.6,62.9,30.15,WSW,257,0.0,0.0,91,0.00,,,0.00,0,Wunderground v.1.15,2013-01-14 23:32:00,
2013-01-14 18:38:00,65.6,62.9,30.15,WSW,257,0.0,0.0,91,0.00,,,0.00,0,Wunderground v.1.15,2013-01-14 23:38:00,
2013-01-14 18:44:00,65.5,63.1,30.15,WSW,257,0.0,0.0,92,0.00,,,0.00,0,Wunderground v.1.15,2013-01-14 23:44:00,
2013-01-14 18:50:00,65.3,62.9,30.15,WSW,257,0.0,0.0,92,0.00,,,0.00,0,Wunderground v.1.15,2013-01-14 23:50:00,
2013-01-14 18:56:00,65.3,62.9,30.15,WSW,257,0.0,0.0,92,0.00,,,0.00,0,Wunderground v.1.15,2013-01-14 23:56:00,
2013-01-14 19:02:00,65.2,63.1,30.15,WSW,257,0.0,0.0,93,0.00,,,0.00,0,Wunderground v.1.15,2013-01-15 00:02:00,
2013-01-14 19:08:00,65.2,63.1,30.15,WSW,257,0.0,0.0,93,0.00,,,0.00,0,Wunderground v.1.15,2013-01-15 00:08:00,
2013-01-14 19:14:00,65.2,63.1,30.15,WSW,257,0.0,0.0,93,0.00,,,0.00,0,Wunderground v.1.15,2013-01-15 00:14:00,
2013-01-14 19:20:00,65.2,63.4,30.15,NNW,337,0.0,0.0,94,0.00,,,0.00,0,Wunderground v.1.15,2013-01-15 00:20:00,
2013-01-14 19:26:00,65.2,63.4,30.15,NNW,337,0.0,0.0,94,0.00,,,0.00,0,Wunderground v.1.15,2013-01-15 00:26:00,
2013-01-14 19:32:00,65.2,63.4,30.14,NNW,337,0.0,0.0,94,0.00,,,0.00,0,Wunderground v.1.15,2013-01-15 00:32:00,
2013-01-14 19:38:00,65.0,63.2,30.14,NNW,337,0.0,0.0,94,0.00,,,0.00,0,Wunderground v.1.15,2013-01-15 00:38:00,
2013-01-14 19:44:00,64.8,63.0,30.14,NNW,337,0.0,0.0,94,0.00,,,0.00,0,Wunderground v.1.15,2013-01-15 00:44:00,
2013-01-14 19:50:00,64.8,63.0,30.15,NNW,337,0.0,0.0,94,0.00,,,0.00,0,Wunderground v.1.15,2013-01-15 00:50:00,
2013-01-14 19:56:00,64.7,62.9,30.15,NNW,337,0.0,0.0,94,0.00,,,0.00,0,Wunderground v.1.15,2013-01-15 00:56:00,
2013-01-14 20:02:00,64.7,62.9,30.15,NNW,337,0.0,0.0,94,0.00,,,0.00,0,Wunderground v.1.15,2013-01-15 01:02:00,
2013-01-14 20:08:00,64.5,62.7,30.15,NNW,337,0.0,0.0,94,0.00,,,0.00,0,Wunderground v.1.15,2013-01-15 01:08:00,
2013-01-14 20:14:00,64.5,63.0,30.15,NNW,337,0.0,0.0,95,0.00,,,0.00,0,Wunderground v.1.15,2013-01-15 01:14:00,
2013-01-14 20:20:00,64.5,63.0,30.14,NNW,337,0.0,0.0,95,0.00,,,0.00,0,Wunderground v.1.15,2013-01-15 01:20:00,
2013-01-14 20:26:00,64.3,62.8,30.14,NNW,337,0.0,0.0,95,0.00,,,0.00,0,Wunderground v.1.15,2013-01-15 01:26:00,
2013-01-14 20:32:00,64.3,62.8,30.14,NNW,337,0.0,0.0,95,0.00,,,0.00,0,Wunderground v.1.15,2013-01-15 01:32:00,
2013-01-14 20:38:00,64.2,62.7,30.14,NNW,337,0.0,0.0,95,0.00,,,0.00,0,Wunderground v.1.15,2013-01-15 01:38:00,
2013-01-14 20:44:00,64.2,62.7,30.13,NNW,337,0.0,0.0,95,0.00,,,0.00,0,Wunderground v.1.15,2013-01-15 01:44:00,
2013-01-14 20:50:00,64.2,62.7,30.13,NNW,337,0.0,0.0,95,0.00,,,0.00,0,Wunderground v.1.15,2013-01-15 01:50:00,
2013-01-14 20:56:00,64.0,62.5,30.13,NNW,337,0.0,0.0,95,0.00,,,0.00,0,Wunderground v.1.15,2013-01-15 01:56:00,
2013-01-14 21:02:00,64.0,62.5,30.13,NNW,337,0.0,0.0,95,0.00,,,0.00,0,Wunderground v.1.15,2013-01-15 02:02:00,
2013-01-14 21:08:00,63.9,62.4,30.13,NNW,337,0.0,0.0,95,0.00,,,0.00,0,Wunderground v.1.15,2013-01-15 02:08:00,
2013-01-14 21:14:00,63.9,62.4,30.13,NNW,337,0.0,0.0,95,0.00,,,0.00,0,Wunderground v.1.15,2013-01-15 02:14:00,
2013-01-14 21:20:00,63.7,62.2,30.13,NNW,337,0.0,0.0,95,0.00,,,0.00,0,Wunderground v.1.15,2013-01-15 02:20:00,
2013-01-14 21:26:00,63.5,62.0,30.13,NNW,337,0.0,0.0,95,0.00,,,0.00,0,Wunderground v.1.15,2013-01-15 02:26:00,
2013-01-14 21:32:00,63.4,61.9,30.13,NNW,337,0.0,0.0,95,0.00,,,0.00,0,Wunderground v.1.15,2013-01-15 02:32:00,
2013-01-14 21:38:00,63.2,62.0,30.13,NNW,337,0.0,0.0,96,0.00,,,0.00,0,Wunderground v.1.15,2013-01-15 02:38:00,
2013-01-14 21:44:00,63.1,61.9,30.13,NNW,337,0.0,0.0,96,0.00,,,0.00,0,Wunderground v.1.15,2013-01-15 02:44:00,
2013-01-14 21:50:00,62.9,61.7,30.13,NNW,337,0.0,0.0,96,0.00,,,0.00,0,Wunderground v.1.15,2013-01-15 02:50:00,
2013-01-14 21:56:00,62.7,61.5,30.13,NNW,337,0.0,0.0,96,0.00,,,0.00,0,Wunderground v.1.15,2013-01-15 02:56:00,
2013-01-14 22:02:00,62.6,61.4,30.13,NNW,337,0.0,0.0,96,0.00,,,0.00,0,Wunderground v.1.15,2013-01-15 03:02:00,
2013-01-14 22:08:00,62.4,61.2,30.13,NNW,337,0.0,0.0,96,0.00,,,0.00,0,Wunderground v.1.15,2013-01-15 03:08:00,
2013-01-14 22:14:00,62.3,61.1,30.13,NNW,337,0.0,0.0,96,0.00,,,0.00,0,Wunderground v.1.15,2013-01-15 03:14:00,
2013-01-14 22:20:00,62.3,61.1,30.13,NNW,337,0.0,0.0,96,0.00,,,0.00,0,Wunderground v.1.15,2013-01-15 03:20:00,
2013-01-14 22:26:00,62.1,60.9,30.13,NNW,337,0.0,0.0,96,0.00,,,0.00,0,Wunderground v.1.15,2013-01-15 03:26:00,
2013-01-14 22:32:00,62.0,60.8,30.13,NNW,337,0.0,0.0,96,0.00,,,0.00,0,Wunderground v.1.15,2013-01-15 03:32:00,
2013-01-14 22:38:00,61.6,60.4,30.13,NNW,337,0.0,0.0,96,0.00,,,0.00,0,Wunderground v.1.15,2013-01-15 03:38:00,
2013-01-14 22:44:00,61.3,60.2,30.13,NNW,337,0.0,0.0,96,0.00,,,0.00,0,Wunderground v.1.15,2013-01-15 03:44:00,
2013-01-14 22:50:00,61.2,60.1,30.13,NNW,337,0.0,0.0,96,0.00,,,0.00,0,Wunderground v.1.15,2013-01-15 03:50:00,
2013-01-14 22:56:00,61.2,60.3,30.13,NNW,337,0.0,0.0,97,0.00,,,0.00,0,Wunderground v.1.15,2013-01-15 03:56:00,
2013-01-14 23:02:00,61.2,60.3,30.14,NNW,337,0.0,0.0,97,0.00,,,0.00,0,Wunderground v.1.15,2013-01-15 04:02:00,
2013-01-14 23:08:00,61.0,60.1,30.14,South,174,0.0,2.0,97,0.00,,,0.00,0,Wunderground v.1.15,2013-01-15 04:08:00,
2013-01-14 23:14:00,61.0,60.1,30.14,South,174,1.0,2.0,97,0.00,,,0.00,0,Wunderground v.1.15,2013-01-15 04:14:00,
2013-01-14 23:20:00,61.0,60.1,30.14,South,174,0.0,0.0,97,0.00,,,0.00,0,Wunderground v.1.15,2013-01-15 04:20:00,
2013-01-14 23:26:00,61.0,60.1,30.14,South,174,0.0,0.0,97,0.00,,,0.00,0,Wunderground v.1.15,2013-01-15 04:26:00,
2013-01-14 23:32:00,61.0,60.1,30.13,South,174,0.0,0.0,97,0.00,,,0.00,0,Wunderground v.1.15,2013-01-15 04:32:00,
2013-01-14 23:38:00,60.9,60.0,30.13,South,174,0.0,0.0,97,0.00,,,0.00,0,Wunderground v.1.15,2013-01-15 04:38:00,
2013-01-14 23:44:00,60.5,59.6,30.14,South,174,0.0,0.0,97,0.00,,,0.00,0,Wunderground v.1.15,2013-01-15 04:44:00,
2013-01-14 23:50:00,60.2,59.3,30.14,South,174,0.0,0.0,97,0.00,,,0.00,0,Wunderground v.1.15,2013-01-15 04:50:00,
2013-01-14 23:56:00,60.1,59.2,30.14,South,174,0.0,0.0,97,0.00,,,0.00,0,Wunderground v.1.15,2013-01-15 04:56:00,